TimeCST,TemperatureF,Dew PointF,Humidity,Sea Level PressureIn,VisibilityMPH,Wind Direction,Wind SpeedMPH,Gust SpeedMPH,PrecipitationIn,Events,Conditions,WindDirDegrees,DateUTC
12:15 AM,52.7,42.6,69,30.09,10.0,Calm,Calm,-,N/A,,Overcast,0,2014-02-25 06:15:00
12:35 AM,52.9,42.4,68,30.07,10.0,East,3.5,-,N/A,,Overcast,80,2014-02-25 06:35:00
12:55 AM,52.7,41.9,67,30.07,10.0,East,3.5,-,N/A,,Overcast,90,2014-02-25 06:55:00
1:15 AM,52.7,41.9,67,30.06,10.0,ESE,3.5,-,N/A,,Overcast,110,2014-02-25 07:15:00
1:35 AM,52.2,41.9,68,30.06,10.0,East,3.5,-,N/A,,Overcast,100,2014-02-25 07:35:00
1:55 AM,52.3,41.9,68,30.06,10.0,ESE,3.5,-,N/A,,Overcast,110,2014-02-25 07:55:00
2:15 AM,52.7,41.9,67,30.07,10.0,Calm,Calm,-,N/A,,Overcast,0,2014-02-25 08:15:00
2:35 AM,52.7,41.9,67,30.08,10.0,North,3.5,-,N/A,,Overcast,360,2014-02-25 08:35:00
2:55 AM,52.5,42.1,68,30.08,10.0,North,3.5,-,N/A,,Overcast,10,2014-02-25 08:55:00
3:15 AM,52.3,41.9,68,30.09,10.0,North,5.8,-,N/A,,Overcast,350,2014-02-25 09:15:00
3:35 AM,52.0,41.9,69,30.09,10.0,North,4.6,-,N/A,,Overcast,360,2014-02-25 09:35:00
3:55 AM,51.8,41.0,67,30.09,10.0,NNE,4.6,-,N/A,,Overcast,20,2014-02-25 09:55:00
4:15 AM,51.6,40.8,67,30.08,10.0,NNE,3.5,-,N/A,,Overcast,30,2014-02-25 10:15:00
4:35 AM,51.8,40.5,65,30.09,10.0,North,3.5,-,N/A,,Overcast,10,2014-02-25 10:35:00
4:55 AM,51.4,40.5,66,30.10,10.0,North,4.6,-,N/A,,Overcast,360,2014-02-25 10:55:00
5:15 AM,51.3,40.1,66,30.11,10.0,NE,3.5,-,N/A,,Overcast,40,2014-02-25 11:15:00
5:35 AM,50.9,39.9,66,30.10,10.0,NNE,5.8,-,N/A,,Overcast,30,2014-02-25 11:35:00
5:55 AM,50.2,39.7,67,30.11,10.0,NNE,4.6,-,N/A,,Overcast,20,2014-02-25 11:55:00
6:15 AM,49.1,36.7,62,30.12,10.0,NNE,6.9,-,N/A,,Overcast,20,2014-02-25 12:15:00
6:35 AM,48.2,35.6,62,30.12,10.0,NNE,5.8,-,N/A,,Overcast,30,2014-02-25 12:35:00
6:55 AM,47.5,35.4,63,30.14,10.0,North,5.8,-,N/A,,Overcast,360,2014-02-25 12:55:00
7:15 AM,46.8,34.7,63,30.14,10.0,NE,6.9,-,N/A,,Overcast,40,2014-02-25 13:15:00
7:35 AM,46.4,34.5,63,30.15,10.0,NNE,4.6,-,N/A,,Overcast,30,2014-02-25 13:35:00
7:55 AM,46.4,34.5,63,30.15,10.0,NNE,4.6,-,N/A,,Overcast,30,2014-02-25 13:55:00
8:15 AM,46.4,35.4,66,30.14,10.0,NE,5.8,-,N/A,,Overcast,50,2014-02-25 14:15:00
8:30 AM,46.6,36.1,67,30.15,10.0,ENE,5.8,-,N/A,,Overcast,60,2014-02-25 14:30:00
8:55 AM,46.8,37.4,70,30.16,10.0,ENE,4.6,-,N/A,,Overcast,60,2014-02-25 14:55:00
9:15 AM,46.9,37.8,70,30.16,10.0,NE,4.6,-,N/A,,Overcast,50,2014-02-25 15:15:00
9:35 AM,47.3,37.9,70,30.16,10.0,NNE,6.9,-,N/A,,Overcast,30,2014-02-25 15:35:00
9:55 AM,48.6,38.5,68,30.16,10.0,ENE,3.5,-,N/A,,Overcast,70,2014-02-25 15:55:00
10:15 AM,47.8,38.5,70,30.17,10.0,Calm,Calm,-,N/A,,Overcast,0,2014-02-25 16:15:00
10:35 AM,48.2,38.8,70,30.16,10.0,Calm,Calm,-,N/A,,Overcast,0,2014-02-25 16:35:00
10:55 AM,49.5,39.4,68,30.15,10.0,East,5.8,-,N/A,,Overcast,90,2014-02-25 16:55:00
11:15 AM,50.9,39.4,65,30.15,10.0,ENE,5.8,-,N/A,,Overcast,60,2014-02-25 17:15:00
11:35 AM,51.3,39.9,65,30.15,10.0,ENE,4.6,-,N/A,,Overcast,70,2014-02-25 17:35:00
11:55 AM,52.5,40.3,63,30.13,10.0,NE,3.5,-,N/A,,Overcast,50,2014-02-25 17:55:00
12:15 PM,53.4,40.6,62,30.12,10.0,East,6.9,-,N/A,,Overcast,90,2014-02-25 18:15:00
12:35 PM,52.9,40.5,63,30.11,10.0,ENE,4.6,-,N/A,,Overcast,60,2014-02-25 18:35:00
12:55 PM,54.5,41.0,60,30.10,10.0,East,4.6,-,N/A,,Overcast,80,2014-02-25 18:55:00
1:15 PM,54.1,41.2,62,30.08,10.0,ENE,4.6,-,N/A,,Overcast,60,2014-02-25 19:15:00
1:35 PM,54.7,41.4,61,30.07,10.0,ENE,5.8,-,N/A,,Overcast,70,2014-02-25 19:35:00
1:55 PM,55.4,41.9,60,30.06,10.0,East,5.8,-,N/A,,Overcast,100,2014-02-25 19:55:00
2:15 PM,55.9,41.9,59,30.04,10.0,ENE,4.6,-,N/A,,Overcast,70,2014-02-25 20:15:00
2:35 PM,55.6,42.1,60,30.04,10.0,East,5.8,-,N/A,,Overcast,80,2014-02-25 20:35:00
2:55 PM,55.4,42.1,61,30.03,10.0,ENE,3.5,-,N/A,,Overcast,70,2014-02-25 20:55:00
3:15 PM,55.2,42.4,62,30.02,10.0,East,5.8,-,N/A,,Overcast,90,2014-02-25 21:15:00
3:35 PM,55.6,42.8,62,30.02,10.0,ESE,6.9,-,N/A,,Overcast,120,2014-02-25 21:35:00
3:55 PM,55.4,42.8,63,30.02,10.0,Calm,Calm,-,N/A,,Overcast,0,2014-02-25 21:55:00
4:15 PM,54.9,42.8,64,30.02,10.0,NE,3.5,-,N/A,,Overcast,50,2014-02-25 22:15:00
4:35 PM,54.5,42.6,64,30.03,10.0,NE,3.5,-,N/A,,Overcast,40,2014-02-25 22:35:00
4:55 PM,54.0,42.6,65,30.03,10.0,NE,4.6,-,N/A,,Overcast,40,2014-02-25 22:55:00
5:15 PM,53.6,42.4,66,30.03,10.0,Calm,Calm,-,N/A,,Overcast,0,2014-02-25 23:15:00
5:35 PM,53.2,42.4,67,30.03,10.0,Calm,Calm,-,N/A,,Overcast,0,2014-02-25 23:35:00
5:55 PM,52.9,42.4,68,30.03,10.0,Calm,Calm,-,N/A,,Overcast,0,2014-02-25 23:55:00
6:15 PM,52.7,42.8,69,30.02,10.0,Calm,Calm,-,N/A,,Overcast,0,2014-02-26 00:15:00
6:35 PM,52.3,43.0,70,30.02,10.0,Calm,Calm,-,N/A,,Overcast,0,2014-02-26 00:35:00
6:55 PM,52.2,43.3,72,30.04,10.0,Calm,Calm,-,N/A,,Overcast,0,2014-02-26 00:55:00
7:15 PM,52.0,43.3,72,30.04,10.0,Calm,Calm,-,N/A,,Overcast,0,2014-02-26 01:15:00
7:35 PM,51.8,41.9,69,30.04,10.0,NNE,4.6,-,N/A,Rain,Light Rain,20,2014-02-26 01:35:00
7:55 PM,51.3,40.5,67,30.04,10.0,North,5.8,-,N/A,Thunderstorm,Overcast,10,2014-02-26 01:55:00
8:15 PM,50.9,39.9,66,30.05,10.0,North,3.5,-,N/A,,Overcast,10,2014-02-26 02:15:00
8:35 PM,50.9,39.4,65,30.05,10.0,North,4.6,-,N/A,,Overcast,10,2014-02-26 02:35:00
8:55 PM,50.9,39.0,64,30.05,10.0,NNE,4.6,-,N/A,,Overcast,20,2014-02-26 02:55:00
9:15 PM,50.9,38.7,63,30.04,10.0,NE,4.6,-,N/A,,Overcast,50,2014-02-26 03:15:00
9:35 PM,50.9,38.5,62,30.04,10.0,NE,4.6,-,N/A,,Overcast,50,2014-02-26 03:35:00
9:55 PM,50.5,38.3,63,30.03,10.0,NE,5.8,-,N/A,,Overcast,40,2014-02-26 03:55:00
10:15 PM,49.8,39.6,68,30.03,7.0,NE,8.1,-,0.02,Rain-Thunderstorm,Heavy Thunderstorms and Rain,40,2014-02-26 04:15:00
10:35 PM,46.6,42.3,85,30.06,2.0,North,8.1,-,0.21,Rain-Thunderstorm,Heavy Thunderstorms and Rain,10,2014-02-26 04:35:00
10:55 PM,45.5,42.4,89,30.09,7.0,NNE,3.5,-,0.28,Rain-Thunderstorm,Rain,20,2014-02-26 04:55:00
11:15 PM,45.3,42.8,91,30.09,3.0,NNW,8.1,-,0.07,Rain-Thunderstorm,Light Thunderstorms and Rain,330,2014-02-26 05:15:00
11:35 PM,44.6,42.1,91,30.05,7.0,NE,4.6,-,0.13,Rain-Thunderstorm,Rain,40,2014-02-26 05:35:00
11:55 PM,44.6,41.7,90,30.05,10.0,ENE,3.5,-,0.13,,Light Drizzle,60,2014-02-26 05:55:00